Home   Weather   Mansfield   Past weeks
Flag for USA

Past Weather in Mansfield, Ohio, USA — Yesterday and Last 2 Weeks

Now
42 °F

Passing clouds.


Feels Like: 37 °F
Forecast: 52 / 41 °F
Wind: 9 mph from West

Location: Mansfield Lahm Municipal Airport

Current Time: Oct 17, 2019 at 5:27:50 am

Latest Report: Oct 17, 2019 at 3:52 am


Visibility: 10 mi

Pressure: 29.83 "Hg

Humidity: 85%

Dew Point: 38 °F

Location of MansfieldLocation

Past Weather in Mansfield — Graph

°F

Mansfield Temperature Yesterday

Maximum temperature yesterday: 62 °F (at 1:52 am)
Minimum temperature yesterday: 46 °F (at 3:31 pm)
Average temperature yesterday: 51 °F

High & Low Weather Summary for the Past Weeks

 TemperatureHumidityPressure
High87 °F (Oct 2, 2:52 pm)100% (Oct 2, 8:52 pm)30.33 "Hg (Oct 2, 8:52 pm)
Low36 °F (Oct 12, 7:52 am)21% (Oct 15, 2:57 pm)29.62 "Hg (Oct 16, 4:52 am)
Average58 °F73%30.04 "Hg
* Reported Oct 2 3:52 am — Oct 17 3:52 am, Mansfield. Weather by CustomWeather, © 2019

Note: Actual official high and low records may vary slightly from our data, if they occured in-between our weather recording intervals... More about our weather records

Advertising

Mansfield Weather History for the Previous 24 Hours

Scroll right to see more
 ConditionsComfort  
Time TempWeatherWind HumidityBarometerVisibility
3:52 am
Thu, Oct 17
42 °FPassing clouds.9 mph85%29.83 "Hg10 mi
2:52 am44 °FMostly cloudy.15 mph79%29.81 "Hg10 mi
2:24 am45 °FOvercast.16 mph76%29.80 "Hg10 mi
1:52 am45 °FOvercast.15 mph80%29.81 "Hg10 mi
12:52 am46 °FOvercast.14 mph77%29.80 "Hg10 mi
11:52 pm
Wed, Oct 16
46 °FOvercast.13 mph86%29.80 "Hg10 mi
11:05 pm47 °FMostly cloudy.10 mph86%29.79 "Hg10 mi
10:18 pm47 °FOvercast.9 mph86%29.78 "Hg10 mi
9:52 pm47 °FMostly cloudy.16 mph86%29.79 "Hg10 mi
8:52 pm47 °FMostly cloudy.16 mph90%29.77 "Hg10 mi
7:52 pm47 °FMostly cloudy.17 mph90%29.75 "Hg10 mi
7:38 pm47 °FLight rain. Mostly cloudy.16 mph93%29.73 "Hg9 mi
6:52 pm47 °FMostly cloudy.16 mph93%29.72 "Hg10 mi
6:38 pm47 °FMostly cloudy.13 mph93%29.72 "Hg10 mi
5:52 pm47 °FLight rain. Mostly cloudy.15 mph93%29.72 "Hg7 mi
5:35 pm46 °FFog.17 mph93%29.71 "Hg6 mi
5:09 pm47 °FLight rain. Fog.14 mph90%29.70 "Hg6 mi
4:52 pm47 °FLight rain. Fog.16 mph93%29.70 "Hg6 mi
4:30 pm47 °FFog.12 mph90%29.71 "Hg4 mi
3:52 pm46 °FFog.13 mph93%29.70 "Hg4 mi
3:31 pm46 °FLight rain. Fog.13 mph89%29.70 "Hg3 mi
2:52 pm47 °FOvercast.13 mph80%29.70 "Hg10 mi
1:52 pm48 °FOvercast.13 mph74%29.70 "Hg10 mi
12:52 pm47 °FMostly cloudy.16 mph74%29.72 "Hg10 mi
11:52 am47 °FMostly cloudy.12 mph77%29.71 "Hg10 mi
11:35 am47 °FMostly cloudy.13 mph77%29.71 "Hg10 mi
11:03 am47 °FMore clouds than sun.12 mph77%29.71 "Hg10 mi
10:36 am48 °FPartly sunny.14 mph80%29.70 "Hg10 mi
9:52 am47 °FScattered clouds.15 mph83%29.70 "Hg10 mi
8:57 am48 °FBroken clouds.10 mph93%29.68 "Hg8 mi
7:52 am48 °FLight rain. Low clouds.7 mph96%29.65 "Hg8 mi
7:28 am48 °FLight rain. Mostly cloudy.No wind96%29.64 "Hg7 mi
6:55 am48 °FRain. Fog.5 mph93%29.68 "Hg6 mi
6:24 am48 °FLight rain. Mostly cloudy.8 mph89%29.68 "Hg7 mi
5:52 am51 °FRain. Fog.15 mph89%29.67 "Hg4 mi
5:25 am53 °FLight rain. Mostly cloudy.10 mph86%29.67 "Hg10 mi
Weather by CustomWeather, © 2019

See weather overview